Location: Schommer Observatory
(40.5200°N, 74.4500°W)
Time: 09:32:59
(UTC-05:00)

Tiangong 2 - Pass Details

Date: 10 November 2017
Orbit: 386 x 392 km, 42.8° (Epoch: 22 November)

Event Time Altitude Azimuth Distance (km) Brightness Sun altitude
Rises 18:34:55 0° 284° (WNW) 2,273 6.2 -21.2°
Reaches altitude 10° 18:37:04 10° 277° (W) 1,414 5.0 -21.6°
Enters shadow 18:39:51 38° 218° (SW) 603 2.3 -22.1°
